Roseburg, OR

9:55 AM PST on November 20, 2019 (GMT -0800)
Roseburg Regional

Weather History for KRBG - September, 2019

Change the Weather History Date:

Thursday, September 12, 2019

  Actual Average Record
Temperature  
Mean Temperature 71 °F 66 °F  
Max Temperature 87 °F 80 °F 98 °F (1975)
Min Temperature 54 °F 52 °F 42 °F (1986)
Degree Days  
Heating Degree Days 0 1  
Month to date heating degree days 2 12  
Since 1 July heating degree days 7 33  
Cooling Degree Days 6 2  
Month to date cooling degree days 63 40  
Year to date cooling degree days 666 451  
Growing Degree Days 20 (Base 50)    
Moisture  
Dew Point 54 °F    
Average Humidity 65    
Maximum Humidity 93    
Minimum Humidity 37    
Precipitation  
Precipitation 0.00 in 0.02 in 0.40 in (1994)
Month to date precipitation 0.59 0.29  
Year to date precipitation 23.36 19.94  
Sea Level Pressure  
Sea Level Pressure 30.14 in    
Wind  
Wind Speed 3 mph (North)    
Max Wind Speed 14 mph    
Max Gust Speed 20 mph    
Visibility 10 miles    
Events      
T = Trace of Precipitation, MM = Missing Value Source: NWS Daily Summary

Daily Weather History Graph

Daily Weather History Graph

Search for Another Location

Airport or City:

Astronomy

Sep. 12, 2019 Rise Set
Actual Time 6:49 AM PDT 7:29 PM PDT
Civil Twilight 6:20 AM PDT 7:57 PM PDT
Nautical Twilight 5:46 AM PDT 8:31 PM PDT
Astronomical Twilight 5:11 AM PDT 9:06 PM PDT
Moon 7:19 PM PDT (9/12) 5:10 AM PDT (9/12)
Length of Visible Light 13h 36m
Length of Day
12h 39m
Waxing Gibbous, 98% of the Moon is Illuminated
Sep 12
Waxing Gibbous
Sep 13
Full
Sep 21
Last Quarter
Sep 28
New
Oct 5
First Quarter

Hourly Weather History & Observations

Time (PDT) Temp. Heat Index Dew Point Humidity Pressure Visibility Wind Dir Wind Speed Gust Speed Precip Events Conditions
12:53 AM 60.1 °F - 55.0 °F 83% 30.15 in 10.0 mi Calm Calm - N/A   Clear
1:53 AM 59.0 °F - 54.0 °F 83% 30.16 in 10.0 mi Calm Calm - N/A   Clear
2:53 AM 57.0 °F - 54.0 °F 89% 30.16 in 10.0 mi Calm Calm - N/A   Clear
3:53 AM 55.9 °F - 53.1 °F 90% 30.17 in 10.0 mi Calm Calm - N/A   Clear
4:53 AM 55.9 °F - 53.1 °F 90% 30.16 in 10.0 mi Calm Calm - N/A   Clear
5:53 AM 54.0 °F - 52.0 °F 93% 30.16 in 10.0 mi Calm Calm - N/A   Clear
6:53 AM 54.0 °F - 51.1 °F 90% 30.16 in 10.0 mi Calm Calm - N/A   Clear
7:53 AM 55.0 °F - 53.1 °F 93% 30.17 in 10.0 mi Calm Calm - N/A   Clear
8:53 AM 59.0 °F - 54.0 °F 83% 30.18 in 10.0 mi Calm Calm - N/A   Clear
9:53 AM 63.0 °F - 54.0 °F 72% 30.17 in 10.0 mi Calm Calm - N/A   Clear
10:53 AM 69.1 °F - 55.0 °F 61% 30.16 in 10.0 mi Calm Calm - N/A   Clear
11:53 AM 73.0 °F - 55.0 °F 53% 30.14 in 10.0 mi Calm Calm - N/A   Clear
12:53 PM 78.1 °F - 53.1 °F 42% 30.13 in 10.0 mi Calm Calm - N/A   Clear
1:53 PM 82.0 °F 81.2 °F 53.1 °F 37% 30.11 in 10.0 mi Calm Calm - N/A   Clear
2:53 PM 84.9 °F 83.6 °F 55.0 °F 36% 30.09 in 10.0 mi Variable 5.8 mph - N/A   Clear
3:53 PM 86.0 °F 84.9 °F 57.0 °F 37% 30.09 in 10.0 mi WNW 5.8 mph - N/A   Clear
4:53 PM 84.9 °F 83.6 °F 55.0 °F 36% 30.07 in 10.0 mi NW 8.1 mph - N/A   Clear
5:53 PM 81.0 °F 80.8 °F 55.9 °F 42% 30.09 in 10.0 mi NNW 9.2 mph - N/A   Clear
6:53 PM 78.1 °F - 54.0 °F 43% 30.10 in 10.0 mi NNW 8.1 mph - N/A   Clear
7:53 PM 73.9 °F - 54.0 °F 50% 30.12 in 10.0 mi North 8.1 mph - N/A   Clear
8:53 PM 71.1 °F - 53.1 °F 53% 30.14 in 10.0 mi North 6.9 mph - N/A   Clear
9:53 PM 69.1 °F - 52.0 °F 54% 30.15 in 10.0 mi NE 3.5 mph - N/A   Clear
10:53 PM 64.0 °F - 53.1 °F 67% 30.16 in 10.0 mi NNE 4.6 mph - N/A   Clear
11:53 PM 63.0 °F - 53.1 °F 70% 30.15 in 10.0 mi Calm Calm - N/A   Clear